ATLAS CENTAUR 2

Last updated on Mon Sep 21 2026 00:02:07 GMT+0000 (Coordinated Universal Time)

1 00694U 63047A 26263.47186999 .00001956 00000+0 22750-3 0 9990 2 00694 30.3532 186.4569 0544760 357.9354 1.9031 14.12710252159181
UTC large
Height (km)
Speed (km/s)
/
Latitude / Longitude
Inclination (degrees)
Orbital Period (minutes)
Azimuth
Elevation
Range (km)
Doppler Factor

Next 0 passes for location: London (51.5072 / 0.1276)

No passes found over London.
ATLAS CENTAUR 2